KA8UPW-1 Weather Reports


Display with metric or nautical units.
time (UTC)temp
F
wind
direction
speed
MPH
gust
MPH
rain 1hr
in
rain 24hr
in
rain mn
in
humidity
%
barometer
mb
20260508125404 51 0 0.0 0.0 0.00 0.00 0.00 71 1011.1
20260508124503 50 0 0.0 0.0 0.00 0.00 0.00 72 1011.1
20260508123817 50 0 0.0 0.0 0.00 0.00 0.00 72 1011.2
20260508122919 50 0 0.0 0.0 0.00 0.00 0.00 72 1011.1
20260508121804 50 0 0.0 0.0 0.00 0.00 0.00 72 1011.1
20260508121119 49 0 0.0 0.0 0.00 0.00 0.00 72 1011.0
20260508120003 49 0 0.0 0.0 0.00 0.00 0.00 73 1010.9
20260508115403 48 0 0.0 0.0 0.00 0.00 0.00 73 1010.8
20260508114504 48 0 0.0 0.0 0.00 0.00 0.00 73 1010.7
20260508113603 47 0 0.0 0.0 0.00 0.00 0.00 73 1010.6
20260508112703 47 0 0.0 0.0 0.00 0.00 0.00 74 1010.6
20260508111803 47 0 0.0 0.0 0.00 0.00 0.00 74 1010.6
20260508110903 47 0 0.0 0.0 0.00 0.00 0.00 74 1010.5
20260508110005 46 0 0.0 0.0 0.00 0.00 0.00 75 1010.5
20260508105403 46 0 0.0 0.0 0.00 0.00 0.00 77 1010.5
20260508104503 45 0 0.0 0.0 0.00 0.00 0.00 78 1010.5
20260508103818 45 0 0.0 0.0 0.00 0.00 0.00 79 1010.4
20260508102921 45 0 0.0 0.0 0.00 0.00 0.00 79 1010.2
20260508101803 45 0 0.0 0.0 0.00 0.00 0.00 80 1010.1
20260508100903 45 0 0.0 0.0 0.00 0.00 0.00 80 1010.1
20260508100008 45 0 0.0 0.0 0.00 0.00 0.00 81 1010.2
20260508095403 45 0 0.0 0.0 0.00 0.00 0.00 81 1010.2
20260508094503 45 0 0.0 0.0 0.00 0.00 0.00 82 1010.3
20260508093819 45 0 0.0 0.0 0.00 0.00 0.00 83 1010.3
20260508092703 45 0 0.0 0.0 0.00 0.00 0.00 84 1010.3
20260508092019 45 0 0.0 0.0 0.00 0.00 0.00 85 1010.4
20260508090903 44 0 0.0 0.0 0.00 0.00 0.00 87 1010.4
20260508090005 44 0 0.0 0.0 0.00 0.00 0.00 87 1010.4
20260508085403 44 0 0.0 0.0 0.00 0.00 0.00 87 1010.5
20260508084504 44 0 0.0 0.0 0.00 0.00 0.00 85 1010.7
20260508083604 45 0 0.0 0.0 0.00 0.00 0.00 85 1010.7
20260508082703 45 0 0.0 0.0 0.00 0.00 0.00 84 1010.8
20260508082019 46 0 0.0 0.0 0.00 0.00 0.00 83 1010.7
20260508080903 46 0 0.0 0.0 0.00 0.00 0.00 82 1010.7
20260508080004 47 0 0.0 0.0 0.00 0.00 0.00 81 1010.7
20260508075620 47 0 0.0 0.0 0.00 0.00 0.00 81 1010.7
20260508074503 47 0 0.0 0.0 0.00 0.00 0.00 80 1010.7
20260508073603 47 0 0.0 0.0 0.00 0.00 0.00 80 1010.7
20260508072917 47 0 0.0 0.0 0.00 0.00 0.00 80 1010.7
20260508071804 47 0 0.0 0.0 0.00 0.00 0.00 81 1010.9
20260508070903 47 0 0.0 0.0 0.00 0.00 0.00 80 1011.1
20260508070004 47 0 0.0 0.0 0.00 0.00 0.00 80 1011.3
20260508065404 47 0 0.0 0.0 0.00 0.00 0.00 80 1011.4
20260508064504 46 0 0.0 0.0 0.00 0.00 0.00 80 1011.4
20260508063603 46 0 0.0 0.0 0.00 0.00 0.00 81 1011.6
20260508062704 47 0 0.0 0.0 0.00 0.00 0.00 80 1011.4
20260508062021 47 0 0.0 0.0 0.00 0.00 0.00 80 1011.4
20260508060905 47 0 0.0 0.0 0.00 0.00 0.00 80 1011.6
20260508060004 47 0 0.0 0.0 0.00 0.00 0.00 79 1011.7
20260508055403 48 0 0.0 0.0 0.00 0.00 0.00 78 1011.8
20260508054719 48 0 0.0 0.0 0.00 0.00 0.00 77 1012.0
20260508053821 48 0 0.0 0.0 0.00 0.00 0.00 76 1012.0
20260508052919 48 0 0.0 0.0 0.00 0.00 0.00 76 1012.1
20260508051803 48 0 0.0 0.0 0.00 0.00 0.00 73 1011.6
20260508050903 48 0 0.0 0.0 0.00 0.00 0.00 72 1011.4
20260508050005 48 0 0.0 0.0 0.00 0.00 0.00 72 1011.4
20260508045403 48 0 0.0 0.0 0.00 0.00 0.00 72 1011.4
20260508044504 47 0 0.0 0.0 0.00 0.00 0.00 73 1011.4
20260508043604 47 0 0.0 0.0 0.00 0.00 0.00 73 1011.3
20260508042703 47 0 0.0 0.0 0.00 0.00 0.00 73 1011.3
20260508042017 47 0 0.0 0.0 0.00 0.00 0.00 74 1011.2
20260508040903 47 0 0.0 0.0 0.00 0.00 0.00 74 1011.2
20260508040005 47 0 0.0 0.0 0.00 0.00 0.00 73 1011.3
20260508035403 47 0 0.0 0.0 0.00 0.00 0.00 72 1011.4
20260508034504 48 0 0.0 0.0 0.00 0.00 0.00 71 1011.5
20260508033603 48 0 0.0 0.0 0.00 0.00 0.00 69 1011.4
20260508032920 48 0 0.0 0.0 0.00 0.00 0.00 67 1011.5
20260508031803 49 0 0.0 0.0 0.00 0.00 0.00 65 1011.6
20260508030903 49 0 0.0 0.0 0.00 0.00 0.00 64 1011.6
20260508030222 50 0 0.0 0.0 0.00 0.00 0.00 64 1011.7
20260508025403 50 0 0.0 0.0 0.00 0.00 0.00 63 1011.9
20260508024504 50 0 0.0 0.0 0.00 0.00 0.00 62 1012.0
20260508023818 50 0 0.0 0.0 0.00 0.00 0.00 62 1011.9
20260508022704 50 0 0.0 0.0 0.00 0.00 0.00 60 1011.9
20260508022018 51 0 0.0 0.0 0.00 0.00 0.00 60 1011.7
20260508021120 51 0 0.0 0.0 0.00 0.00 0.00 59 1011.7
20260508020003 51 0 0.0 0.0 0.00 0.00 0.00 57 1011.7
20260508015404 51 0 0.0 0.0 0.00 0.00 0.00 57 1011.7
20260508014504 52 0 0.0 0.0 0.00 0.00 0.00 56 1011.5
20260508013603 52 0 0.0 0.0 0.00 0.00 0.00 55 1011.6
20260508012921 52 0 0.0 0.0 0.00 0.00 0.00 54 1011.6
20260508011804 52 0 0.0 0.0 0.00 0.00 0.00 54 1011.3
20260508010903 52 0 0.0 0.0 0.00 0.00 0.00 53 1011.2
20260508010008 51 0 0.0 0.0 0.00 0.00 0.00 57 1011.1
20260508005620 51 0 0.0 0.0 0.00 0.00 0.00 59 1011.2
20260508004503 51 0 0.0 0.0 0.00 0.00 0.00 56 1011.1
20260508003604 52 0 0.0 0.0 0.00 0.00 0.00 55 1010.9
20260508002704 52 0 0.0 0.0 0.00 0.00 0.00 53 1010.7
20260508001804 52 0 0.0 0.0 0.00 0.00 0.00 52 1010.7
20260508000904 53 0 0.0 0.0 0.00 0.00 0.00 49 1010.7
20260508000219 53 0 0.0 0.0 0.00 0.00 0.00 49 1010.7
20260507235404 54 0 0.0 0.0 0.00 0.00 0.00 48 1010.6
20260507234503 54 0 0.0 0.0 0.00 0.00 0.00 48 1010.5
20260507233603 54 0 0.0 0.0 0.00 0.00 0.00 47 1010.5
20260507232703 54 0 0.0 0.0 0.00 0.00 0.00 47 1010.5
20260507232020 55 0 0.0 0.0 0.00 0.00 0.00 48 1010.5
20260507230905 54 0 0.0 0.0 0.00 0.00 0.00 51 1010.6
20260507230005 54 0 0.0 0.0 0.00 0.00 0.00 49 1010.6
20260507225404 54 0 0.0 0.0 0.00 0.00 0.00 50 1010.7
20260507224504 54 0 0.0 0.0 0.00 0.00 0.00 48 1010.7
20260507223821 54 0 0.0 0.0 0.00 0.00 0.00 48 1010.8
20260507222703 54 0 0.0 0.0 0.00 0.00 0.00 49 1010.9
20260507221804 54 0 0.0 0.0 0.00 0.00 0.00 47 1010.9
20260507220903 54 0 0.0 0.0 0.00 0.00 0.00 47 1010.8
20260507220004 55 0 0.0 0.0 0.00 0.00 0.00 47 1010.8
20260507215404 55 0 0.0 0.0 0.00 0.00 0.00 46 1010.8
20260507214719 56 0 0.0 0.0 0.00 0.00 0.00 46 1010.7
20260507213603 58 0 0.0 0.0 0.00 0.00 0.00 44 1010.5
20260507212703 58 0 0.0 0.0 0.00 0.00 0.00 44 1010.5
20260507211804 58 0 0.0 0.0 0.00 0.00 0.00 45 1010.6
20260507210904 58 0 0.0 0.0 0.00 0.00 0.00 45 1010.6
20260507210004 58 0 0.0 0.0 0.00 0.00 0.00 47 1010.5
20260507205403 57 0 0.0 0.0 0.00 0.00 0.00 45 1010.4
20260507204503 56 0 0.0 0.0 0.00 0.00 0.00 46 1010.5
20260507203817 57 0 0.0 0.0 0.00 0.00 0.00 47 1010.6
20260507202703 57 0 0.0 0.0 0.00 0.00 0.00 45 1010.6
20260507201804 57 0 0.0 0.0 0.00 0.00 0.00 44 1010.4
20260507200903 57 0 0.0 0.0 0.00 0.00 0.00 49 1010.3
20260507200004 56 0 0.0 0.0 0.00 0.00 0.00 50 1010.5
20260507195403 55 0 0.0 0.0 0.00 0.00 0.00 49 1010.6
20260507194503 56 0 0.0 0.0 0.00 0.00 0.00 51 1010.8
20260507193604 56 0 0.0 0.0 0.00 0.00 0.00 49 1010.8
20260507192704 54 0 0.0 0.0 0.00 0.00 0.00 53 1010.8
20260507191803 54 0 0.0 0.0 0.00 0.00 0.00 52 1011.0
20260507190903 54 0 0.0 0.0 0.00 0.00 0.00 55 1011.0
20260507190217 54 0 0.0 0.0 0.00 0.00 0.00 53 1011.0
20260507185404 56 0 0.0 0.0 0.00 0.00 0.00 51 1011.0
20260507184721 54 0 0.0 0.0 0.00 0.00 0.00 55 1011.0
20260507183603 53 0 0.0 0.0 0.00 0.00 0.00 55 1011.1
20260507182703 54 0 0.0 0.0 0.00 0.00 0.00 54 1011.1
20260507181803 53 0 0.0 0.0 0.00 0.00 0.00 55 1011.1
20260507181120 54 0 0.0 0.0 0.00 0.00 0.00 55 1011.0
20260507180005 54 0 0.0 0.0 0.00 0.00 0.00 54 1011.1
20260507175403 54 0 0.0 0.0 0.00 0.00 0.00 55 1011.1
20260507174503 54 0 0.0 0.0 0.00 0.00 0.00 56 1011.2
20260507173819 53 0 0.0 0.0 0.00 0.00 0.00 58 1011.2
20260507172703 52 0 0.0 0.0 0.00 0.00 0.00 58 1011.4
20260507171804 53 0 0.0 0.0 0.00 0.00 0.00 58 1011.4
20260507170904 53 0 0.0 0.0 0.00 0.00 0.00 53 1011.4
20260507170005 54 0 0.0 0.0 0.00 0.00 0.00 54 1011.4
20260507165403 53 0 0.0 0.0 0.00 0.00 0.00 53 1011.5
20260507164717 53 0 0.0 0.0 0.00 0.00 0.00 52 1011.5
20260507163603 53 0 0.0 0.0 0.00 0.00 0.00 54 1011.5
20260507162703 53 0 0.0 0.0 0.00 0.00 0.00 54 1011.6
20260507161803 53 0 0.0 0.0 0.00 0.00 0.00 55 1011.4
20260507160903 52 0 0.0 0.0 0.00 0.00 0.00 56 1011.4
20260507160004 52 0 0.0 0.0 0.00 0.00 0.00 54 1011.4
20260507155404 52 0 0.0 0.0 0.00 0.00 0.00 56 1011.3
20260507154503 52 0 0.0 0.0 0.00 0.00 0.00 55 1011.4
20260507153820 52 0 0.0 0.0 0.00 0.00 0.00 57 1011.4
20260507152704 51 0 0.0 0.0 0.00 0.00 0.00 57 1011.4
20260507151803 51 0 0.0 0.0 0.00 0.00 0.00 60 1011.4
20260507150903 51 0 0.0 0.0 0.00 0.00 0.00 62 1011.4
20260507150004 50 0 0.0 0.0 0.00 0.00 0.00 64 1011.4
20260507145403 50 0 0.0 0.0 0.00 0.00 0.00 65 1011.4
20260507144504 50 0 0.0 0.0 0.00 0.00 0.00 65 1011.4
20260507143603 50 0 0.0 0.0 0.00 0.00 0.00 68 1011.4
20260507142918 49 0 0.0 0.0 0.00 0.00 0.00 66 1011.5
20260507141805 49 0 0.0 0.0 0.00 0.00 0.00 68 1011.5
20260507141118 48 0 0.0 0.0 0.00 0.00 0.00 70 1011.5
20260507140004 48 0 0.0 0.0 0.00 0.00 0.00 71 1011.7
20260507135622 47 0 0.0 0.0 0.00 0.00 0.00 71 1011.7
20260507134503 47 0 0.0 0.0 0.00 0.00 0.00 71 1011.8
20260507133604 46 0 0.0 0.0 0.00 0.00 0.00 73 1011.9
20260507132703 46 0 0.0 0.0 0.00 0.00 0.00 75 1011.8
20260507131804 45 0 0.0 0.0 0.00 0.00 0.00 75 1011.8
20260507131118 45 0 0.0 0.0 0.00 0.00 0.00 75 1011.8
20260507130008 44 0 0.0 0.0 0.00 0.00 0.00 77 1011.8